Regional Weather Roundup
Issued by NWS

Home | Current Version | Previous Version | Graphics & Text | Print | Product List | Glossary On
Versions: 1 2 3 4 5 6 7 8 9 10 11 12 13 14 15 16 17 18 19 20 21 22 23 24 25 26 27 28 29 30 31 32 33 34 35 36 37 38 39 40 41 42 43 44 45 46 47 48 49 50
000
ASUS43 KBIS 252220
RWRND

NORTH DAKOTA REGIONAL WEATHER ROUNDUP
NATIONAL WEATHER SERVICE BISMARCK ND
500 PM CDT MON MAY 25 2015

NOTE: "FAIR" INDICATES FEW OR NO CLOUDS BELOW 12,000 FEET WITH NO
SIGNIFICANT WEATHER AND/OR OBSTRUCTIONS TO VISIBILITY.


NDZ001>003-009>011-017-252300-
NORTHWEST NORTH DAKOTA

CITY           SKY/WX    TMP DP  RH WIND       PRES   REMARKS
WILLISTON      PTSUNNY   75  41  29 CALM      29.84S
MINOT          SUNNY     78  42  27 NE7       29.80F
MINOT AFB      PTSUNNY   77  44  30 W7        29.80S
$$

NDZ018>021-031>035-040>046-252300-
SOUTHWEST NORTH DAKOTA

CITY           SKY/WX    TMP DP  RH WIND       PRES   REMARKS
BISMARCK       PTSUNNY   70  55  59 W12       29.84F
DICKINSON      CLOUDY    66  47  50 SE12      29.88S
GARRISON         N/A     75  45  34 W7        29.82F
HETTINGER ARPT PTSUNNY   62  51  67 E12       29.91R
$$

NDZ004>008-012>016-024-026-027-054-252300-
NORTHEAST NORTH DAKOTA

CITY           SKY/WX    TMP DP  RH WIND       PRES   REMARKS
GRAND FORKS    CLOUDY    74  50  42 S10       29.75S
GRND FRKS AFB  PTSUNNY   74  49  41 S9        29.76R
DEVILS LAKE    MOSUNNY   79  37  22 E10G16    29.77R
$$

NDZ022-023-025-028>030-036>039-047>053-252300-
SOUTHEAST NORTH DAKOTA

CITY           SKY/WX    TMP DP  RH WIND       PRES   REMARKS
FARGO          CLOUDY    65  53  65 N7        29.79R
JAMESTOWN      PTSUNNY   70  53  54 SW8       29.79R
$$




USA.gov is the U.S. government's official web portal to all federal, state and local government web resources and services.